This demonstration page uses our WeatherBlox Daily Observations layout. Learn more.

Left ArrowRight Arrow

Hourly Observations for March 10, 2020

Temp ( °F °C ) Dew Point ( °F °C ) Humidity (%) Winds ( mph kmh ) Pressure ( in mb ) Visibility ( mi km ) Precip ( " mm )
12:56 am 00:56 Clear 29 -1.6 26 -3.5 87 87 WNW 7 11 30.27 1025 10 16 0.00 0.00
1:56 am 01:56 Clear 28 -2.3 25 -4 88 88 NW 3 6 30.29 1026 10 16 0.00 0.00
2:56 am 02:56 Clear 26 -3.1 23 -4.8 88 88 WNW 5 7 30.29 1026 10 16 0.00 0.00
3:56 am 03:56 Clear 28 -2.3 24 -4.2 87 87 WNW 6 9 30.30 1026 10 16 0.00 0.00
4:56 am 04:56 Clear 26 -3.4 23 -5 89 89 Calm 30.31 1026 10 16 0.00 0.00
5:56 am 05:56 Clear 26 -3.1 23 -4.8 88 88 WNW 7 11 30.32 1027 10 16 0.00 0.00
6:56 am 06:56 Clear 26 -3.2 23 -4.9 88 88 WNW 5 7 30.33 1027 10 16 0.00 0.00
7:56 am 07:56 Sunny 26 -3.4 23 -5 89 89 Calm 30.34 1027 10 16 0.00 0.00
8:56 am 08:56 Sunny 29 -1.4 26 -3.3 87 87 S 3 6 30.34 1027 9 14 0.00 0.00
9:56 am 09:56 Sunny 32 0.2 28 -2.2 84 84 SSE 5 7 30.33 1027 10 16 0.00 0.00
10:56 am 10:56 Sunny 36 2.1 30 -1.2 79 79 S 5 7 30.32 1027 10 16 0.00 0.00
11:56 am 11:56 Sunny 38 3.6 32 -0.2 76 76 W 3 6 30.32 1027 10 16 0.00 0.00
12:56 pm 12:56 Mostly Cloudy 42 5.6 34 0.9 72 72 S 5 7 30.30 1026 10 16 0.00 0.00
1:56 pm 13:56 Cloudy 43 6.3 34 1.2 70 70 S 5 7 30.27 1025 10 16 0.00 0.00
2:54 pm 14:54 Cloudy with Light Rain 43 5.9 34 1 71 71 SSW 5 7 30.25 1025 10 16 0.00 0.00
3:56 pm 15:56 Cloudy 43 6.1 35 1.4 72 72 S 6 9 30.22 1023 10 16 0.00 0.00
4:56 pm 16:56 Cloudy 43 6.3 35 1.4 71 71 SSW 5 7 30.20 1023 10 16 0.00 0.00
5:56 pm 17:56 Mostly Cloudy 43 6 36 2.1 76 76 SE 9 15 30.16 1021 10 16 0.00 0.00
6:56 pm 18:56 Cloudy 43 5.9 36 2.4 78 78 SE 6 9 30.15 1021 10 16 0.00 0.00
7:56 pm 19:56 Cloudy 42 5.7 37 2.7 81 81 ESE 6 9 30.14 1021 10 16 0.00 0.00
8:56 pm 20:56 Mostly Clear 39 3.9 35 1.9 87 87 Calm 30.16 1021 10 16 0.00 0.00
9:56 pm 21:56 Cloudy 42 5.6 37 2.9 83 83 WNW 3 6 30.17 1022 10 16 0.00 0.00
10:56 pm 22:56 Cloudy 41 5 37 2.7 85 85 Calm 30.14 1021 10 16 0.00 0.00
11:56 pm 23:56 Mostly Cloudy 39 4.1 36 2.4 89 89 Calm 30.14 1021 10 16 0.00 0.00

Powered by AerisWeather